Temperature
15 16 16 16 17 18 19 22 23 24 24 25 25 25 24 23 23 20 19 19 18 18 18 18 18 17 17 17 17 17 17 16 16 16 16 16 16 16 16 16 16 16 16 16 16 16 16 15 15
15 15 16 17 17 18 20 22 23 23 24 24 24 24 24 22 21 20 19 18 18 18 18 18 17 17 17 17 17 17 16 16 16 16 16 16 16 16 16 16 16 16 16 16 16 16 15 15 15
15 15 16 17 18 19 21 22 22 23 24 24 23 23 23 21 20 19 18 18 17 17 18 18 17 17 17 17 17 16 16 16 16 16 16 16 16 16 16 16 16 16 16 16 16 16 15 15 15
14 15 16 17 18 20 21 22 23 23 23 23 23 22 21 20 19 19 18 18 17 17 17 17 17 17 17 17 17 16 16 16 16 16 16 16 16 16 16 16 16 16 16 15 15 15 15 15 15
14 15 16 17 18 20 21 23 23 22 22 22 22 21 20 19 19 18 18 17 17 16 17 17 17 17 17 17 17 16 16 16 16 16 16 16 16 16 15 15 16 16 15 15 15 15 15 15 15
14 15 16 16 18 20 21 22 22 22 22 22 22 21 18 18 18 18 18 17 17 17 17 17 17 17 17 17 16 16 16 16 16 16 16 16 16 15 15 15 15 15 15 15 15 15 15 15 14
14 15 16 17 18 19 20 22 22 21 21 22 21 20 18 17 17 17 17 17 17 16 16 16 16 16 16 16 16 16 16 16 16 16 16 16 15 15 15 15 15 15 15 15 15 15 14 14 14
13 14 15 17 17 18 20 20 21 20 20 21 20 19 17 17 17 17 17 17 16 16 16 16 16 16 16 16 16 16 16 16 16 16 15 15 15 15 15 15 15 15 15 15 15 14 14 14 14
13 13 14 16 17 18 19 19 19 19 19 19 19 18 18 17 16 16 16 16 16 15 15 16 15 15 15 16 16 16 15 15 15 15 15 15 15 15 15 15 15 15 14 14 14 14 14 14 13
12 13 14 16 17 17 18 18 18 17 17 17 17 17 17 16 16 16 16 16 15 15 15 15 15 15 15 15 15 15 15 15 15 15 14 14 14 14 14 14 14 14 14 14 14 14 13 13 13
12 13 14 16 17 17 17 17 17 16 15 16 15 15 15 15 15 15 15 15 15 15 15 15 15 15 15 15 15 15 15 15 14 14 14 14 14 14 14 14 14 14 14 14 14 13 13 13 13
12 13 14 14 15 15 16 16 16 15 15 16 15 14 14 14 14 15 15 15 15 15 15 14 14 14 14 15 15 15 14 14 14 14 14 14 14 14 14 14 14 13 13 13 13 13 13 12 12
12 12 13 13 14 14 15 15 15 15 15 15 15 14 14 14 14 14 14 14 14 14 14 14 14 14 14 14 14 14 14 14 14 14 14 14 14 14 13 13 13 13 13 13 13 13 12 12 12
12 12 13 13 13 14 14 14 14 14 14 14 14 13 13 13 14 14 14 14 14 14 14 14 14 14 14 14 14 14 14 14 14 14 14 13 13 13 13 13 13 13 13 13 13 12 12 12 12
12 11 12 13 13 13 13 13 13 14 14 14 13 13 13 13 13 13 14 14 14 14 14 14 13 14 14 14 14 14 14 14 14 13 13 13 13 13 13 13 13 13 13 12 12 12 12 12 12
11 11 10 12 13 13 13 11 13 14 14 13 13 13 13 13 13 13 13 13 13 13 13 13 13 13 13 13 13 13 13 13 13 13 13 13 13 13 13 13 12 12 12 12 12 12 12 12 11
10 10 10 11 12 12 12 11 13 13 13 13 13 13 12 12 13 13 13 13 13 13 13 13 13 13 13 13 13 13 13 13 13 13 13 13 13 13 13 12 12 12 12 12 12 12 12 11 11
9 10 10 10 11 12 11 11 12 13 13 13 13 12 12 12 12 12 12 12 12 12 13 13 12 12 12 12 12 12 12 12 12 12 12 12 12 12 12 12 12 12 12 12 12 11 11 11 11
10 10 10 10 11 11 11 11 12 12 12 12 12 12 12 12 12 12 12 12 12 12 12 12 12 12 12 12 12 12 12 12 12 12 12 12 12 12 12 12 12 12 12 11 11 11 11 11 10
10 9 10 10 12 11 10 11 12 12 12 12 12 12 12 12 11 11 11 11 11 11 11 12 12 12 12 12 12 12 11 11 11 11 11 11 11 11 11 11 11 11 11 11 11 11 10 10 10
9 9 9 10 10 11 10 10 11 11 12 12 12 12 12 11 11 11 11 11 11 11 11 11 11 11 11 11 11 11 11 11 11 11 11 11 11 11 11 11 11 11 11 10 10 10 10 10 9
8 9 10 10 9 9 10 9 10 11 11 11 11 11 11 11 11 10 10 10 10 11 11 11 11 11 11 11 11 11 11 10 10 10 10 10 10 10 10 10 10 10 10 10 10 10 10 9 9
8 9 9 9 9 8 9 9 9 10 10 10 10 10 10 10 10 9 9 10 10 10 10 10 10 10 10 11 11 10 10 10 10 10 10 10 10 10 10 10 10 10 10 9 9 9 9 9 9
9 9 9 9 8 8 9 9 9 9 10 10 9 9 9 9 9 9 9 9 9 9 10 10 10 10 10 10 10 10 10 10 9 9 9 9 9 9 9 9 9 9 9 9 9 9 9 9 8
9 7 7 7 7 8 9 9 9 9 10 9 9 8 8 8 8 8 8 8 8 9 9 9 9 9 9 9 9 10 10 10 9 9 9 9 9 9 9 9 9 9 9 9 8 8 8 8 8
7 8 7 7 7 8 8 8 8 9 9 9 9 8 8 8 8 8 8 8 8 8 8 8 9 8 9 9 9 9 9 9 9 9 9 9 9 9 9 9 9 8 8 8 8 8 8 8 8
7 7 8 7 7 7 8 9 8 8 8 8 8 7 7 7 7 7 7 7 7 7 7 8 8 8 8 8 9 9 9 9 8 8 9 9 9 9 8 8 8 8 8 8 7 7 7 7 7
7 7 6 6 7 7 8 8 7 7 7 7 7 7 6 6 6 6 6 6 7 7 7 7 7 7 8 8 8 8 8 8 8 8 8 8 8 8 8 8 8 7 7 7 7 7 7 6 6
6 6 6 6 6 7 7 7 8 7 7 7 6 6 6 5 5 5 6 6 6 6 6 7 7 7 7 7 7 7 7 7 7 7 7 7 7 7 7 7 7 7 7 7 7 7 6 6 6
5 6 5 5 5 6 6 6 7 6 7 7 6 6 5 5 5 5 5 5 5 6 6 6 6 6 6 7 7 7 7 7 7 7 7 7 7 7 7 7 6 6 6 6 6 6 6 6 5
Wind_Speed
12 11 6 3 4 6 11 8 6 4 4 1 2 2 1 2 2 6 6 10 14 15 17 18 17 16 16 16 15 15 15 15 15 14 14 14 14 14 14 14 14 15 15 14 14 14 15 14 14
10 8 4 4 6 9 10 10 8 4 2 1 1 1 1 3 6 8 7 11 15 16 17 17 18 17 16 16 16 16 15 15 14 14 14 14 14 14 14 14 14 14 14 14 14 14 14 14 13
9 7 4 4 8 12 9 8 6 4 3 2 1 1 0 3 6 5 8 12 14 14 16 18 18 17 17 16 16 15 15 14 14 14 14 14 14 14 14 14 14 14 14 14 14 13 13 13 12
4 3 5 8 14 12 10 6 5 6 3 3 3 2 3 5 4 7 10 12 13 13 16 18 18 17 17 16 16 15 15 14 14 14 14 14 14 14 14 14 14 14 14 13 13 13 12 11 11
4 4 7 11 16 13 9 6 4 5 5 4 3 3 3 4 8 10 10 11 12 13 15 17 18 17 17 16 16 15 15 14 14 14 13 13 14 14 14 14 14 13 13 12 12 12 11 11 10
4 5 9 14 15 12 10 7 5 5 4 4 4 4 3 5 7 8 8 10 11 12 14 16 17 17 16 16 16 15 15 14 14 14 13 13 14 14 13 13 13 13 13 12 11 10 10 9 9
5 7 12 13 12 11 10 8 6 4 4 4 3 3 5 4 5 6 8 9 10 12 13 13 15 15 16 16 16 15 14 14 14 14 13 13 13 13 13 12 12 12 12 11 10 9 9 8 7
5 4 11 13 12 11 7 5 3 1 3 2 3 4 6 5 5 6 7 8 9 10 11 11 12 13 13 14 15 15 14 14 14 14 14 13 13 13 12 12 11 11 11 10 10 9 7 6 5
5 7 11 12 10 8 5 4 1 1 1 1 1 2 7 9 8 8 7 7 7 8 9 9 10 10 12 12 14 14 14 14 14 12 13 12 11 11 11 12 11 10 10 9 8 7 6 4 3
5 10 13 9 7 5 4 3 2 1 0 1 3 7 9 8 8 8 8 8 7 7 8 8 8 9 10 11 12 12 11 12 11 11 11 9 9 10 11 11 10 9 8 7 6 5 4 2 1
6 9 9 8 6 3 4 2 1 3 3 3 3 5 6 6 7 7 7 8 8 7 7 7 7 8 8 7 9 8 9 9 10 10 9 9 9 10 10 9 8 8 7 5 4 3 2 2 2
7 10 9 8 6 3 3 2 2 3 3 1 3 5 6 6 6 6 6 7 7 7 6 6 7 7 7 7 7 7 6 6 7 8 9 8 6 6 6 5 6 6 5 4 2 1 2 2 2
11 9 9 7 6 3 3 3 3 3 3 2 3 5 6 6 5 5 5 6 6 6 6 5 6 7 7 6 6 6 5 6 7 7 8 8 6 4 4 4 4 4 4 3 1 1 1 1 2
8 8 8 8 6 5 4 4 4 5 3 3 4 4 5 5 5 5 5 5 5 6 6 5 6 6 6 6 5 5 6 7 7 7 7 8 7 5 4 3 3 3 3 2 2 1 1 1 2
7 7 7 7 7 5 3 6 8 5 4 5 5 5 5 5 5 4 4 5 6 6 6 6 6 6 6 6 5 6 6 7 6 6 7 7 7 6 5 3 2 3 3 3 3 2 2 1 1
7 6 6 7 8 7 6 9 7 6 5 6 5 5 5 6 5 4 4 4 5 6 6 6 5 5 5 5 5 5 6 6 5 6 7 7 7 6 5 3 3 3 3 3 2 1 1 1 1
6 8 7 6 8 7 8 8 7 6 7 6 6 6 6 5 4 4 4 4 5 6 7 6 6 6 5 5 5 5 6 5 5 6 6 6 7 6 5 4 4 4 3 2 1 1 1 1 1
7 8 7 7 7 9 9 7 7 7 7 7 6 7 6 6 5 4 4 4 4 5 6 6 6 6 5 5 4 4 4 3 5 5 5 6 6 6 5 4 4 4 2 1 1 1 2 1 1
6 6 6 6 6 9 10 9 8 7 7 7 6 7 6 6 5 4 4 4 4 4 5 6 6 6 5 4 3 3 3 3 2 4 5 5 5 6 5 4 3 3 2 1 1 1 2 2 1
7 8 7 5 5 6 8 10 9 8 9 8 7 7 7 6 5 4 4 4 3 4 4 4 6 6 5 4 3 3 3 2 2 4 4 5 5 5 5 4 3 3 2 2 2 2 1 1 1
6 8 7 5 3 5 5 7 8 6 6 6 6 5 6 6 6 5 4 4 3 4 4 3 4 5 5 5 5 4 3 3 2 2 2 4 5 5 5 4 4 3 2 2 2 2 2 0 0
6 6 5 6 4 3 5 5 7 7 7 7 5 4 5 5 5 4 4 3 2 3 3 3 3 4 5 6 6 6 4 3 3 3 3 4 5 5 5 4 4 3 3 2 1 2 1 1 0
3 3 4 6 4 3 5 4 5 6 7 7 5 4 3 3 4 3 3 3 2 2 3 3 3 3 4 5 7 6 5 3 3 4 4 4 3 5 5 5 5 3 3 2 2 1 2 1 0
3 2 3 3 2 4 6 5 4 6 7 6 5 4 3 3 3 3 3 3 2 3 2 2 3 2 2 4 6 6 7 6 6 5 5 4 3 3 4 5 5 4 3 2 2 2 1 1 1
1 2 1 1 2 4 4 3 4 2 3 5 5 5 4 4 4 4 4 3 3 3 2 2 3 2 1 3 4 6 7 7 7 6 6 5 4 3 3 3 3 3 3 3 3 2 1 1 1
4 2 1 2 2 2 3 5 2 1 2 3 4 4 4 4 3 3 3 3 3 3 3 3 2 2 2 3 3 4 5 4 4 4 5 5 4 4 4 4 4 4 4 3 2 1 1 1 1
1 2 2 1 2 2 3 3 0 3 2 2 3 4 3 2 3 3 3 2 3 3 3 3 3 2 2 3 3 4 4 4 4 4 4 4 4 4 5 4 4 4 4 3 2 1 1 1 1
1 1 1 0 1 2 4 4 3 2 2 2 3 3 2 2 2 2 2 2 2 2 2 3 3 3 2 2 3 3 3 3 4 4 4 4 4 4 5 4 3 3 3 3 3 2 1 1 1
0 1 1 2 2 2 2 2 1 2 2 3 3 3 3 2 2 1 1 1 2 2 2 2 3 3 3 3 3 3 3 3 3 3 3 4 4 5 4 4 4 3 3 3 3 2 2 2 1
1 1 2 2 2 2 1 3 3 3 2 4 3 2 2 2 1 1 1 1 2 1 1 1 3 3 3 3 3 3 3 3 3 3 3 4 4 4 4 4 4 3 3 3 3 3 2 2 2
Wind_Direction
297 283 261 248 233 229 235 234 232 224 230 234 353 346 6 14 57 110 138 126 121 128 133 135 133 132 131 129 126 124 122 119 116 113 111 110 109 106 105 103 100 97 94 92 89 87 86 83 80
286 277 255 233 228 226 227 223 226 215 182 51 347 11 71 64 75 107 122 120 125 128 134 137 135 133 132 130 128 126 123 120 118 114 111 111 109 107 103 101 99 97 96 94 91 90 87 85 82
270 262 242 227 229 228 225 199 199 194 158 168 197 324 35 86 87 105 119 124 124 127 132 135 135 133 132 131 128 126 123 121 118 115 113 111 108 106 103 100 98 98 96 96 94 92 89 86 84
255 234 239 235 231 236 238 215 169 184 171 165 170 131 81 60 82 108 117 124 126 125 126 134 136 135 134 132 130 128 126 123 120 118 115 112 110 106 103 101 99 99 98 97 96 94 91 87 83
239 229 224 229 234 237 237 239 207 196 183 177 191 152 99 66 87 109 122 127 129 128 126 135 138 138 136 135 133 131 129 126 125 123 120 116 112 108 105 102 100 100 100 100 98 95 92 87 82
227 227 224 225 228 233 237 230 232 216 191 180 191 176 117 94 97 120 125 126 126 125 126 134 137 137 138 137 135 134 132 130 128 125 123 119 115 111 108 105 103 101 100 100 98 95 93 88 82
235 227 234 231 227 226 232 229 217 214 203 196 185 167 133 109 107 121 121 121 122 124 128 134 136 136 137 138 137 135 133 132 130 128 124 120 118 116 112 109 107 105 102 99 96 96 95 92 86
250 252 238 235 230 228 228 232 217 219 233 197 168 166 154 147 129 120 116 112 115 123 130 135 138 139 138 137 137 136 133 132 131 128 125 123 123 121 117 112 109 108 105 102 99 96 95 97 94
250 236 228 228 230 232 227 228 221 20 324 354 82 96 132 133 130 119 110 106 115 124 130 136 141 140 139 139 137 135 134 133 130 131 133 132 131 127 118 114 113 112 109 107 104 101 98 103 104
225 230 229 238 247 248 242 225 174 101 317 294 66 77 105 122 130 133 134 135 132 132 135 140 141 140 139 141 138 139 140 142 142 143 145 142 129 122 119 119 119 118 117 117 118 120 121 116 118
223 235 239 256 268 273 274 237 154 171 218 210 135 117 121 137 143 147 150 147 149 144 137 142 141 137 136 132 136 137 141 146 145 149 147 131 120 119 119 121 123 127 129 128 138 154 156 108 78
226 242 244 252 278 270 275 259 224 204 226 225 164 150 152 157 162 153 150 147 143 139 136 137 136 135 133 128 127 131 132 132 132 138 132 122 113 114 121 125 135 137 136 135 137 138 107 93 73
225 235 241 244 257 262 265 249 244 241 232 222 157 157 162 162 158 149 142 136 134 133 135 138 133 134 130 125 129 129 124 124 129 126 129 125 118 120 116 117 119 118 118 127 131 91 79 67 62
221 228 236 238 242 244 238 251 238 232 208 170 153 164 166 164 167 153 150 144 139 135 134 130 128 130 129 129 130 121 116 122 124 126 127 125 123 122 115 106 105 106 109 109 92 89 82 64 68
221 226 236 230 220 226 231 250 235 215 199 190 182 178 173 175 176 166 159 153 144 141 133 129 132 128 128 127 127 121 114 118 119 122 126 127 126 122 119 114 105 97 107 99 81 57 58 54 61
216 217 222 227 217 214 209 233 231 202 197 197 191 183 182 184 177 169 159 148 141 140 136 134 134 129 129 123 119 116 116 114 115 121 123 127 128 125 118 115 113 103 100 88 86 79 70 43 37
202 210 215 225 210 206 211 228 223 211 201 206 198 194 188 183 174 166 157 145 146 143 140 138 131 130 131 127 120 117 113 109 114 118 124 129 129 127 120 111 107 105 84 73 90 81 81 63 37
200 209 213 214 206 211 217 225 218 213 208 209 201 198 189 182 178 165 152 145 146 142 135 139 133 129 126 123 117 115 107 104 106 111 114 120 123 123 116 105 102 103 94 83 92 107 82 78 55
221 219 227 236 219 213 215 225 223 212 208 213 210 199 191 180 166 152 137 130 139 140 138 144 138 135 128 126 133 134 137 130 115 109 114 116 117 118 111 102 100 93 100 115 113 104 98 68 55
223 228 240 242 210 207 215 231 230 217 211 208 205 194 183 165 155 155 140 133 135 139 139 146 146 145 139 139 139 134 133 134 124 110 110 114 114 114 114 105 104 99 96 84 66 82 80 68 75
229 227 226 235 242 209 205 236 223 212 207 204 202 190 168 162 159 158 149 142 147 153 152 154 154 151 147 136 125 116 108 109 110 125 132 111 112 111 109 104 97 93 98 105 76 71 72 120 338
226 223 230 228 217 221 196 224 217 207 201 199 189 177 168 165 156 151 145 135 152 153 144 151 162 155 150 147 147 148 149 157 167 154 137 118 115 115 113 110 104 105 105 119 111 81 71 100 204
215 230 231 229 233 260 224 223 220 195 195 197 186 176 158 143 140 138 139 136 117 111 123 136 152 155 160 159 156 155 154 147 140 134 131 126 111 110 115 117 113 115 111 114 104 87 83 76 68
219 208 237 224 202 235 222 209 222 202 202 187 178 164 156 155 147 139 128 122 114 109 111 130 131 140 164 165 161 158 154 150 146 147 145 139 131 115 115 118 114 113 110 114 117 110 108 97 71
234 169 170 188 209 234 198 209 236 207 174 168 176 171 166 157 152 152 145 137 140 136 139 141 144 153 168 168 167 162 155 156 160 161 157 151 149 147 152 126 118 114 110 108 103 114 134 130 128
235 206 187 203 218 263 199 214 237 220 115 121 140 148 149 151 148 149 147 146 156 151 150 147 143 150 164 161 156 156 152 153 157 156 153 159 163 159 152 139 132 129 122 116 107 116 133 122 126
226 220 273 289 280 260 218 201 145 12 70 112 130 125 138 142 145 151 143 141 156 151 155 147 144 143 155 153 143 138 140 143 147 143 150 155 150 143 143 140 137 136 128 126 123 144 152 139 137
324 289 324 255 255 251 235 225 214 220 215 156 151 152 137 119 123 126 128 149 161 153 149 142 154 153 145 131 133 132 134 136 144 142 153 149 143 140 146 145 146 146 141 141 148 159 158 151 191
269 234 273 259 249 248 234 249 4 185 165 156 156 140 136 125 122 115 108 136 130 126 132 144 154 142 134 123 121 125 136 140 147 153 157 152 146 148 155 156 160 164 167 163 170 173 178 183 207
304 248 198 200 259 255 254 274 357 25 77 112 117 110 115 113 98 95 116 114 104 98 108 148 150 145 144 141 136 142 146 145 147 152 152 147 150 150 152 155 163 171 174 175 182 187 191 190 203
Height
1505 1507 1509 1512 1513 1512 1505 1494 1488 1489 1489 1490 1491 1492 1494 1498 1502 1513 1513 1512 1513 1514 1517 1520 1523 1525 1527 1529 1531 1533 1535 1537 1538 1539 1540 1542 1543 1544 1545 1545 1546 1547 1547 1548 1548 1548 1549 1549 1549
1504 1507 1510 1510 1510 1510 1499 1490 1489 1488 1489 1491 1492 1494 1495 1500 1504 1508 1510 1512 1513 1514 1517 1520 1523 1525 1528 1530 1532 1534 1536 1537 1539 1540 1541 1543 1544 1545 1546 1546 1547 1548 1548 1549 1549 1549 1550 1550 1550
1504 1506 1509 1505 1502 1499 1492 1485 1486 1487 1489 1491 1493 1495 1498 1503 1505 1508 1510 1512 1513 1515 1517 1520 1523 1526 1528 1530 1533 1535 1536 1538 1540 1541 1542 1543 1545 1546 1547 1547 1548 1549 1549 1550 1550 1550 1551 1551 1551
1504 1506 1506 1502 1495 1488 1484 1482 1484 1486 1489 1491 1494 1497 1501 1505 1506 1508 1510 1512 1514 1516 1518 1520 1523 1526 1529 1531 1533 1535 1537 1539 1540 1542 1543 1544 1545 1547 1547 1548 1549 1550 1550 1551 1551 1551 1551 1552 1552
1503 1503 1501 1497 1490 1484 1482 1482 1483 1485 1488 1491 1493 1497 1502 1505 1506 1508 1510 1513 1514 1516 1518 1521 1524 1526 1529 1531 1533 1535 1537 1539 1541 1542 1544 1545 1546 1547 1548 1549 1550 1550 1551 1551 1552 1552 1552 1553 1553
1501 1498 1497 1493 1487 1483 1482 1483 1484 1485 1487 1491 1493 1497 1503 1505 1506 1508 1511 1513 1515 1516 1518 1521 1524 1526 1529 1531 1533 1535 1537 1539 1541 1542 1544 1545 1547 1548 1549 1550 1550 1551 1552 1552 1553 1553 1553 1553 1553
1498 1494 1490 1486 1485 1483 1482 1483 1484 1485 1487 1490 1492 1496 1501 1504 1506 1508 1511 1513 1515 1516 1518 1521 1524 1526 1529 1531 1533 1535 1537 1539 1541 1543 1544 1546 1547 1548 1549 1550 1551 1552 1552 1553 1553 1554 1554 1554 1554
1493 1492 1487 1484 1484 1482 1482 1483 1484 1486 1488 1490 1492 1495 1500 1503 1505 1508 1511 1513 1515 1517 1518 1521 1523 1526 1528 1531 1533 1535 1537 1540 1541 1543 1545 1546 1547 1549 1550 1550 1551 1552 1553 1553 1554 1554 1555 1555 1555
1491 1492 1486 1483 1482 1482 1481 1483 1484 1487 1489 1490 1491 1494 1497 1501 1504 1506 1509 1511 1514 1516 1518 1520 1523 1525 1528 1530 1533 1535 1537 1539 1541 1543 1545 1546 1547 1549 1550 1550 1551 1552 1553 1553 1554 1554 1555 1555 1555
1488 1486 1481 1480 1480 1481 1482 1483 1485 1487 1489 1490 1492 1494 1496 1499 1502 1505 1507 1510 1512 1515 1518 1520 1522 1525 1527 1529 1532 1534 1537 1539 1541 1543 1545 1546 1547 1548 1549 1550 1551 1552 1553 1553 1554 1554 1555 1555 1555
1484 1482 1481 1481 1481 1482 1482 1483 1485 1487 1490 1491 1493 1494 1496 1499 1501 1504 1506 1509 1511 1514 1517 1520 1522 1524 1526 1528 1531 1533 1536 1538 1540 1542 1544 1546 1547 1548 1549 1550 1551 1551 1552 1553 1553 1554 1554 1555 1555
1481 1480 1481 1482 1482 1482 1483 1483 1486 1487 1490 1491 1493 1494 1496 1498 1501 1503 1505 1508 1511 1513 1516 1518 1521 1523 1525 1527 1530 1532 1535 1537 1539 1541 1543 1545 1546 1547 1548 1549 1550 1551 1551 1552 1553 1553 1554 1554 1554
1479 1480 1481 1482 1483 1483 1483 1484 1486 1487 1489 1490 1491 1493 1495 1497 1500 1503 1505 1507 1509 1512 1514 1517 1520 1522 1524 1526 1529 1531 1534 1536 1538 1540 1542 1543 1545 1546 1547 1549 1549 1550 1551 1552 1552 1552 1553 1553 1553
1477 1479 1481 1481 1482 1483 1484 1485 1486 1486 1488 1489 1490 1492 1494 1496 1499 1501 1504 1506 1508 1510 1513 1515 1518 1520 1523 1525 1527 1530 1532 1534 1537 1538 1540 1542 1544 1545 1546 1547 1548 1549 1550 1551 1551 1552 1552 1552 1552
1478 1479 1479 1479 1481 1482 1484 1485 1484 1485 1487 1489 1490 1492 1494 1496 1498 1500 1502 1505 1507 1509 1511 1514 1516 1519 1521 1524 1526 1529 1531 1533 1535 1537 1539 1541 1542 1544 1545 1546 1547 1548 1549 1550 1550 1550 1551 1551 1551
1476 1478 1480 1478 1479 1480 1486 1486 1482 1484 1486 1487 1489 1491 1493 1495 1497 1499 1501 1503 1506 1507 1510 1512 1514 1517 1520 1522 1525 1527 1529 1531 1534 1536 1537 1539 1541 1542 1543 1544 1545 1546 1547 1548 1549 1549 1549 1549 1549
1475 1478 1478 1478 1476 1478 1481 1482 1480 1481 1484 1486 1487 1489 1491 1493 1495 1497 1499 1502 1504 1506 1508 1511 1513 1515 1518 1520 1523 1525 1527 1530 1532 1533 1535 1537 1539 1540 1542 1543 1544 1545 1545 1546 1547 1547 1547 1547 1547
1474 1475 1474 1476 1474 1476 1478 1478 1478 1479 1481 1483 1485 1487 1489 1491 1493 1496 1498 1500 1502 1505 1507 1509 1511 1514 1516 1518 1521 1523 1525 1528 1529 1531 1533 1535 1537 1538 1540 1541 1542 1543 1544 1544 1545 1545 1545 1546 1545
1470 1472 1474 1474 1472 1474 1476 1477 1476 1477 1479 1480 1482 1484 1486 1489 1492 1494 1496 1498 1500 1502 1505 1507 1509 1511 1514 1516 1518 1520 1522 1525 1527 1529 1531 1533 1535 1536 1538 1539 1540 1541 1542 1542 1543 1543 1543 1543 1543
1471 1473 1474 1472 1470 1473 1475 1475 1474 1474 1475 1477 1479 1481 1483 1487 1490 1492 1494 1496 1498 1500 1502 1505 1507 1509 1511 1514 1516 1518 1520 1523 1525 1527 1529 1531 1532 1534 1535 1537 1538 1539 1540 1540 1541 1541 1541 1541 1541
1471 1473 1472 1472 1471 1471 1475 1476 1472 1471 1472 1475 1477 1479 1482 1484 1487 1490 1491 1493 1496 1498 1500 1502 1505 1507 1509 1512 1514 1516 1518 1520 1522 1524 1526 1528 1530 1532 1533 1535 1536 1536 1537 1538 1538 1539 1539 1539 1539
1471 1470 1470 1471 1475 1476 1474 1480 1472 1469 1470 1473 1475 1478 1480 1483 1485 1487 1489 1491 1494 1496 1498 1500 1503 1504 1507 1509 1511 1513 1515 1517 1519 1522 1524 1526 1527 1529 1531 1532 1533 1534 1535 1536 1536 1536 1536 1536 1536
1469 1468 1469 1471 1473 1477 1474 1478 1472 1467 1470 1472 1473 1476 1478 1481 1484 1485 1487 1490 1492 1493 1495 1498 1500 1502 1504 1506 1509 1511 1513 1515 1517 1519 1522 1524 1525 1527 1528 1530 1531 1532 1532 1533 1533 1534 1534 1534 1534
1467 1469 1469 1470 1474 1479 1471 1473 1471 1468 1467 1469 1472 1474 1476 1479 1481 1483 1485 1487 1489 1491 1493 1495 1497 1499 1501 1503 1506 1508 1510 1512 1514 1517 1519 1521 1523 1524 1526 1527 1528 1529 1530 1530 1531 1531 1531 1531 1531
1469 1474 1479 1479 1479 1475 1466 1470 1470 1465 1464 1466 1469 1472 1475 1477 1479 1481 1483 1485 1487 1488 1490 1492 1494 1496 1498 1500 1503 1505 1507 1509 1512 1514 1517 1518 1520 1521 1523 1524 1525 1526 1527 1528 1528 1528 1528 1529 1528
1471 1473 1480 1482 1478 1472 1468 1470 1466 1463 1462 1464 1466 1470 1473 1475 1477 1479 1481 1483 1485 1486 1488 1490 1491 1493 1496 1497 1499 1502 1504 1507 1509 1512 1514 1516 1517 1519 1520 1522 1523 1524 1524 1525 1525 1526 1525 1526 1525
1473 1475 1473 1476 1473 1475 1469 1464 1464 1462 1462 1464 1466 1469 1471 1473 1475 1477 1479 1481 1483 1484 1485 1487 1489 1491 1493 1494 1496 1499 1501 1504 1506 1509 1511 1513 1514 1516 1517 1519 1520 1521 1521 1522 1522 1523 1523 1523 1522
1474 1474 1477 1479 1478 1475 1468 1465 1468 1466 1464 1464 1466 1468 1469 1472 1473 1475 1477 1479 1480 1481 1483 1485 1487 1489 1490 1492 1494 1496 1498 1501 1504 1506 1508 1510 1512 1513 1514 1516 1517 1518 1518 1519 1520 1520 1520 1520 1520
1477 1477 1477 1478 1477 1477 1475 1472 1464 1462 1462 1463 1466 1468 1469 1471 1473 1474 1476 1477 1478 1479 1481 1482 1484 1486 1487 1489 1491 1493 1496 1498 1501 1503 1505 1507 1508 1510 1511 1513 1514 1514 1515 1516 1516 1517 1516 1516 1517
1477 1477 1479 1483 1481 1476 1478 1478 1464 1463 1462 1463 1466 1468 1469 1471 1472 1473 1475 1475 1476 1477 1478 1480 1481 1483 1485 1487 1489 1491 1493 1495 1498 1499 1502 1504 1505 1507 1508 1509 1510 1511 1512 1512 1513 1513 1513 1513 1513